Regional Weather Roundup
Issued by NWS

Home | Current Version | Previous Version | Graphics & Text | Print | Product List | Glossary On
Versions: 1 2 3 4 5 6 7 8 9 10 11 12 13 14 15 16 17 18 19 20 21 22 23 24 25 26 27 28 29 30 31 32 33 34 35 36 37 38 39 40 41 42 43 44 45 46 47 48 49 50
000
ASUS43 KLMK 250202
RWRKY
KENTUCKY REGIONAL WEATHER ROUNDUP
NATIONAL WEATHER SERVICE LOUISVILLE KY
1000 PM EDT WED MAY 24 2017

NOTE "FAIR" INDICATES FEW OR NO CLOUDS BELOW 12,000 FEET
WITH NO SIGNIFICANT WEATHER AND/OR OBSTRUCTIONS TO VISIBILITY.

KYZ001>023-026-027-061>063-070>075-250300-
WESTERN AND SOUTH CENTRAL KENTUCKY

CITY           SKY/WX    TMP DP  RH WIND       PRES   REMARKS
PADUCAH        PTCLDY    59  49  69 W6        29.55R
HENDERSON      LGT RAIN  58  55  90 W10       29.52S
OWENSBORO      CLOUDY    59  54  83 W13       29.50S
HOPKINSVILLE   PTCLDY    57  57  99 CALM      29.54S
BOWLING GREEN  CLOUDY    57  54  89 W5        29.53S
GLASGOW        NOT AVBL
$$

KYZ024-025-028>034-038-045-046-053-250300-
NORTH CENTRAL KENTUCKY

CITY           SKY/WX    TMP DP  RH WIND       PRES   REMARKS
LOUISVILLE/SDF LGT RAIN  59  57  93 W12       29.43S
LOUISVILLE/LOU LGT RAIN  59  59 100 W9        29.43S
FORT KNOX      MOCLDY    55  55  99 W10       29.45R
$$

KYZ035>037-039>044-047>052-055>060-089>105-250300-
NORTHEAST KENTUCKY

CITY           SKY/WX    TMP DP  RH WIND       PRES   REMARKS
LEXINGTON      CLOUDY    59  56  89 SW10      29.43R
COVINGTON      CLOUDY    59  58  96 N9        29.36S
FRANKFORT      CLOUDY    60  55  83 W7        29.40R
$$

KYZ054-064>069-076>088-106>120-250300-
SOUTHEAST KENTUCKY

CITY           SKY/WX    TMP DP  RH WIND       PRES   REMARKS
JACKSON        CLEAR     59  52  77 MISG      29.46R
LONDON         CLOUDY    57  52  83 SW9       29.50S
SOMERSET       NOT AVBL
MIDDLESBORO    MOCLDY    60  51  72 W7        29.52R
MONTICELLO     CLOUDY    56  51  84 W17       29.54S
$$





USA.gov is the U.S. government's official web portal to all federal, state and local government web resources and services.